Weather History for LIVP - November, 2013

Change the Weather History Date:

Sunday, November 17, 2013

  Actual Average Record
Temperature  
Mean Temperature 34 °F -  
Max Temperature 37 °F 32 °F 42 °F (2004)
Min Temperature 30 °F 23 °F 15 °F (1998)
Degree Days  
Heating Degree Days 32    
Moisture  
Dew Point 20 °F    
Average Humidity 50    
Maximum Humidity 75    
Minimum Humidity 31    
Precipitation  
Precipitation 0.00 in 0.05 in - ()
Sea Level Pressure  
Sea Level Pressure 30.12 in    
Wind  
Wind Speed 6 mph ()    
Max Wind Speed 16 mph    
Max Gust Speed -    
Averages and records for this station are not official NWS values.
T = Trace of Precipitation, MM = Missing Value Source: Averaged Metar Reports

Daily Weather History Graph

Daily Weather History Graph

Search for Another Location

Airport or City:

Trip Planner

Search our weather history database for the weather conditions in past years. The results will help you decide how hot, cold, wet, or windy it might be!

Date:

Astronomy

Nov. 17, 2013 Rise Set
Actual Time 7:19 AM CET 4:41 PM CET
Civil Twilight 6:46 AM CET 5:14 PM CET
Nautical Twilight 6:10 AM CET 5:50 PM CET
Astronomical Twilight 5:34 AM CET 6:26 PM CET
Moon 4:47 PM CET (11/17) 6:56 AM CET (11/17)
Length of Visible Light 10h 27m
Length of Day
9h 22m
Full, 100% of the Moon is Illuminated
Nov 17
Full
Nov 17
Full
Nov 25
Last Quarter
Dec 3
New
Dec 9
First Quarter

Hourly Weather History & Observations

Time (CET) Temp. Windchill Dew Point Humidity Pressure Visibility Wind Dir Wind Speed Gust Speed Precip Events Conditions
12:00 AM 36 °F - 22 °F 43%  in 37 mi North 6.9 mph - -   Clear
12:55 AM 35.6 °F 29.9 °F 19.4 °F 52% 30.18 in - North 6.9 mph - N/A   Clear
1:00 AM 36 °F - 20 °F 39%  in 37 mi North 6.9 mph - -   Clear
1:55 AM 35.6 °F 29.2 °F 21.2 °F 56% 30.18 in - North 8.1 mph - N/A   Clear
2:55 AM 35.6 °F - 17.6 °F 48% 30.18 in - NNW 2.3 mph - N/A   Clear
3:55 AM 35.6 °F 31.7 °F 17.6 °F 48% 30.18 in - SSW 4.6 mph - N/A   Clear
4:00 AM 36 °F - 17 °F 33%  in 37 mi SSW 4.6 mph - -   Clear
4:55 AM 35.6 °F - 17.6 °F 48% 30.18 in - South 2.3 mph - N/A   Clear
5:55 AM 33.8 °F 29.6 °F 17.6 °F 52% 30.15 in - SSW 4.6 mph - N/A   Clear
6:55 AM 33.8 °F - 17.6 °F 52% 30.15 in - Variable 2.3 mph - N/A   Clear
7:00 AM 34 °F - 17 °F 36%  in 31 mi 2.3 mph - -   Clear
7:55 AM 35.6 °F - 15.8 °F 44% 30.15 in - Variable 2.3 mph - N/A   Clear
8:00 AM 36 °F - 16 °F 31%  in 31 mi 2.3 mph - -   Clear
8:55 AM 35.6 °F 30.7 °F 19.4 °F 52% 30.15 in - SW 5.8 mph - N/A   Clear
9:00 AM 36 °F - 19 °F 37%  in 31 mi SW 5.8 mph - -   Clear
9:55 AM 35.6 °F - 21.2 °F 56% 30.15 in - Variable 2.3 mph - N/A   Clear
10:00 AM 36 °F - 22 °F 43%  in 31 mi 2.3 mph - -   Clear
10:55 AM 37.4 °F 31.4 °F 21.2 °F 52% 30.15 in - SW 8.1 mph - N/A   Clear
11:55 AM 37.4 °F 31.4 °F 21.2 °F 52% 30.15 in - SW 8.1 mph - N/A   Clear
12:55 PM 37.4 °F 30.8 °F 21.2 °F 52% 30.15 in - SSW 9.2 mph - N/A   Clear
1:00 PM 38 °F - 20 °F 35%  in 31 mi SSW 9.2 mph - -   Scattered Clouds
1:55 PM 37.4 °F 32.1 °F 21.2 °F 52% 30.12 in - South 6.9 mph - N/A   Clear
2:00 PM 37 °F - 22 °F 41%  in 31 mi South 6.9 mph - -   Clear
2:55 PM 37.4 °F 32.1 °F 23.0 °F 56% 30.09 in - SW 6.9 mph - N/A   Clear
3:00 PM 37 °F - 22 °F 42%  in 31 mi SW 6.9 mph - -  
3:55 PM 37.4 °F 32.8 °F 21.2 °F 52% 30.09 in - SW 5.8 mph - N/A   Clear
4:00 PM 37 °F - 20 °F 38%  in 31 mi SW 5.8 mph - -   Partly Cloudy
4:55 PM 35.6 °F 28.6 °F 19.4 °F 52% 30.09 in - SW 9.2 mph - N/A   Clear
5:00 PM 36 °F - 20 °F 38%  in 31 mi SW 9.2 mph - -   Partly Cloudy
5:55 PM 33.8 °F 26.4 °F 21.2 °F 60% 30.09 in - South 9.2 mph - N/A   Clear
6:00 PM 34 °F - 21 °F 46%  in 31 mi South 9.2 mph - -   Partly Cloudy
6:55 PM 33.8 °F 24.3 °F 23.0 °F 65% 30.06 in - South 13.8 mph - N/A   Clear
7:00 PM 34 °F - 23 °F 52%  in 31 mi South 13.8 mph - -   Partly Cloudy
7:55 PM 33.8 °F 24.3 °F 19.4 °F 56% 30.06 in - South 13.8 mph - N/A   Clear
8:55 PM 32.0 °F 25.6 °F 21.2 °F 64% 30.06 in - South 6.9 mph - N/A   Clear
9:55 PM 32.0 °F 22.1 °F 21.2 °F 64% 30.06 in - South 13.8 mph - N/A   Clear
10:55 PM 30.2 °F 19.8 °F 21.2 °F 69% 30.06 in - South 13.8 mph - N/A   Clear
11:55 PM 30.2 °F 18.9 °F 23.0 °F 75% 30.06 in - SW 16.1 mph - N/A   Clear